Flag for Germany Weather past 2 weeks in Dorsten, North Rhine-Westphalia, Germany

Now
60 °F

Overcast.


Feels Like: 60 °F
Forecast: 51 / 65 °F
Wind: 1 mph from West

Location: Essen

Current Time: Sep 2, 2015 at 7:14:35 PM

Latest Report: Sep 2, 2015 at 6:00 PM


Visibility: 34 mi

Pressure: 29.99 "Hg

Humidity: 69%

Dew point: 49 °F

Location of DorstenLocation

Historic Weather in Dorsten — Graph

°F

Dorsten temperature yesterday

Maximum temperature yesterday: 68 °F (at 1:00 AM)
Minimum temperature yesterday: 56 °F (at 11:00 PM)
Average temperature yesterday: 61 °F

Past Weeks' High & Low Weather Summary

 TemperatureHumidityPressure
High88 °F (Aug 31, 3:00 PM)100% (Aug 24, 5:00 AM)30.25 "Hg (Aug 24, 5:00 AM)
Low50 °F (Sep 2, 7:00 AM)30% (Aug 31, 6:00 PM)29.53 "Hg (Aug 24, 5:00 PM)
Average66 °F72%29.98 "Hg
* Reported Aug 18 5:00 PM — Sep 2 5:00 PM, Dorsten, Weather by CustomWeather, © 2015

Note: Actual official high and low records may vary slightly from our data, if they occured in-between our weather recording intervals... More about our weather records

Advertising

Dorsten weather history for previous 24 hours

 ConditionsComfort  
Time TempWeatherWind HumidityBarometerVisibility
5:00 PM
Wed, Sep 2
60 °FOvercast.2 mph68%30.01 "Hg40 mi
4:00 PM61 °FOvercast.3 mph71%30.01 "Hg28 mi
3:00 PM60 °FOvercast.2 mph83%30.01 "Hg17 mi
2:00 PM62 °FLight rain. Low clouds.5 mph68%30.01 "Hg34 mi
1:00 PM62 °FOvercast.3 mph73%30.02 "Hg28 mi
12:00 PM61 °FScattered clouds.2 mph75%30.03 "Hg25 mi
11:00 AM59 °FPartly sunny.5 mph75%30.04 "Hg22 mi
10:00 AM58 °FPassing clouds.2 mph81%30.04 "Hg19 mi
9:00 AM55 °FScattered clouds.2 mph90%30.04 "Hg6 mi
8:00 AM51 °FFog.1 mph100%30.05 "Hg2 mi
7:00 AM50 °FFog.2 mph100%30.06 "Hg3 mi
6:00 AM51 °FClear.1 mph100%30.06 "Hg5 mi
5:00 AM51 °FClear.1 mph99%30.06 "Hg6 mi
4:00 AM51 °FClear.2 mph99%30.06 "Hg5 mi
3:00 AM52 °FClear.2 mph96%30.06 "Hg16 mi
2:00 AM53 °FClear.2 mph95%30.06 "Hg19 mi
1:00 AM53 °FClear.2 mph94%30.06 "Hg16 mi
11:00 PM
Tue, Sep 1
56 °FClear.1 mph87%30.04 "Hg28 mi
10:00 PM58 °FPassing clouds.1 mph86%30.03 "Hg25 mi
9:00 PM59 °FPassing clouds.2 mph81%30.02 "Hg34 mi
8:00 PM61 °FScattered clouds.2 mph80%29.99 "Hg37 mi
7:00 PM62 °FPartly sunny.1 mph83%29.97 "Hg31 mi
Weather by CustomWeather, © 2015

See weather overviewHow to use our weather pages